[[{"header":{"parameterUnit":"m.s-1","parameterCategory":1,"la1":30.2991,"la2":30.254,"lo1":-89.0895,"lo2":-89.0444,"dy":0.0017,"dx":0.0017,"nx":28,"ny":28,"refTime":"2025-08-05T03:00:00:Z","depth":0,"parameterNumber":2,"parameterNumberName":"U-component_of_WINDS"},"data":[0,0,0,0,0,0,0,0,0,0,0,0,0,0,0,0,0,0,0,0,0,0,0,0,0,0,0,0,0,0,0,0,0,0,0,0,0,0,0,0,0,0,0,0,0,0,0,0,0,0,0,0,0,0,0,0,0,0,-1.3227,-1.3226,0,-1.3191,-1.319,-1.319,-1.3156,-1.3155,-1.3155,-1.3154,-1.3123,-1.3123,-1.3122,0,0,0,0,0,0,0,0,0,0,0,0,0,-1.3268,-1.3267,-1.3227,-1.3226,-1.3226,-1.3191,-1.319,-1.319,-1.3156,-1.3155,-1.3155,-1.3154,-1.3123,-1.3123,-1.3122,0,0,0,0,0,0,0,0,0,0,0,0,0,-1.3243,-1.3267,-1.3227,-1.3204,-1.3202,-1.3191,-1.319,-1.319,-1.3156,-1.3155,-1.3154,-1.3154,-1.3123,-1.3123,-1.3122,-1.3132,0,0,-1.312,-1.312,0,0,0,0,0,0,0,0,-1.3244,-1.3241,-1.3208,-1.3206,-1.3203,-1.3177,-1.3193,-1.3171,-1.3156,-1.3174,-1.3154,-1.3153,-1.3142,-1.314,-1.3135,-1.3131,-1.3129,-1.312,-1.312,-1.312,-1.312,0,0,0,0,0,0,0,-1.3246,-1.3243,-1.3213,-1.3208,-1.3205,-1.3197,-1.3192,-1.3189,-1.3162,-1.3172,-1.3169,-1.3165,-1.3141,-1.3135,-1.3134,-1.3129,-1.312,-1.312,-1.3119,-1.3119,-1.3127,-1.3127,0,0,0,0,0,0,-1.3251,-1.3244,-1.3214,-1.3211,-1.3222,-1.3196,-1.3192,-1.3186,-1.3162,-1.3158,-1.3166,-1.3164,-1.3137,-1.3134,-1.3133,-1.314,-1.312,-1.3119,-1.3119,-1.3126,-1.3127,-1.3127,0,0,0,0,0,0,-1.3252,-1.3248,-1.3215,-1.3227,-1.3222,-1.3196,-1.319,-1.3186,-1.318,-1.3157,-1.3153,-1.3165,-1.3136,-1.3133,-1.3131,-1.3138,-1.3119,-1.3118,-1.3125,-1.3126,-1.3127,-1.3156,0,0,0,0,0,0,-1.3253,-1.3249,-1.3252,-1.3227,-1.3222,-1.3214,-1.3191,-1.3185,-1.3179,-1.3176,-1.3156,-1.3152,-1.3135,-1.3132,-1.313,-1.3137,-1.3118,-1.3125,-1.3126,-1.3127,-1.3154,-1.3158,-1.316,0,0,0,0,0,-1.3255,-1.3264,-1.3253,-1.3249,-1.3225,-1.3214,-1.3211,-1.3191,-1.318,-1.3182,-1.3167,-1.3152,-1.3137,-1.3132,-1.313,-1.3137,-1.3124,-1.3125,-1.3127,-1.3153,-1.3157,-1.316,0,0,0,0,0,0,-1.3294,-1.3261,-1.3248,-1.3249,-1.3234,-1.3209,-1.3212,-1.3196,-1.3186,-1.3184,-1.316,-1.3156,-1.3156,-1.3146,-1.3141,-1.3142,-1.3129,-1.3129,-1.3149,-1.3153,-1.3156,-1.3159,-1.3117,0,0,0,0,0,-1.3302,-1.3294,-1.3267,-1.327,-1.3263,-1.3239,-1.3234,-1.3218,-1.3203,-1.3197,-1.3182,-1.3169,-1.316,-1.3156,-1.3148,-1.3152,-1.3146,-1.3155,-1.3158,-1.3161,-1.3162,-1.3161,-1.3164,-1.3131,-1.3131,-1.3131,0,0,-1.332,-1.3301,-1.3298,-1.3277,-1.3264,-1.3258,-1.3234,-1.3229,-1.3224,-1.3197,-1.3193,-1.3181,-1.3164,-1.3164,-1.3164,-1.3156,-1.3169,-1.3163,-1.3165,-1.3165,-1.3162,-1.3165,-1.3168,-1.3132,-1.3132,-1.3132,0,0,-1.3349,-1.3334,-1.3334,-1.332,-1.3299,-1.3282,-1.3281,-1.3257,-1.3247,-1.3241,-1.322,-1.3214,-1.3201,-1.3189,-1.3182,-1.32,-1.3186,-1.3199,-1.3216,-1.3214,-1.3217,-1.3219,-1.3224,-1.3226,-1.32,-1.32,-1.32,0,-1.3374,-1.3362,-1.3337,-1.3331,-1.3322,-1.3293,-1.3293,-1.3281,-1.326,-1.3254,-1.3245,-1.3225,-1.3213,-1.3208,-1.3212,-1.3207,-1.3206,-1.3201,-1.3218,-1.322,-1.3222,-1.3226,-1.3228,-1.3201,-1.3201,-1.3201,-1.3201,0,-1.3393,-1.3385,-1.3387,-1.3363,-1.3354,-1.3352,-1.3325,-1.3319,-1.3303,-1.3287,-1.328,-1.3263,-1.3249,-1.3247,-1.3233,-1.3239,-1.3234,-1.3222,-1.3208,-1.3227,-1.323,-1.3232,-1.3204,-1.3203,-1.3203,-1.3202,0,0,-1.3449,-1.3407,-1.3408,-1.3395,-1.3368,-1.3361,-1.3356,-1.3339,-1.3334,-1.3319,-1.3313,-1.3301,-1.3287,-1.3279,-1.3263,-1.3262,-1.3275,-1.3249,-1.3248,-1.3253,-1.3277,-1.3286,-1.3289,-1.3264,-1.3264,-1.3265,-1.3278,0,-1.3473,-1.346,-1.3434,-1.343,-1.3421,-1.3392,-1.3387,-1.3369,-1.3353,-1.3343,-1.3325,-1.3316,-1.33,-1.3294,-1.3291,-1.3274,-1.3279,-1.3272,-1.3259,-1.3259,-1.3263,-1.3291,-1.3301,-1.3315,-1.328,-1.328,-1.328,0,-1.3499,-1.3482,-1.3476,-1.3445,-1.344,-1.3436,-1.3416,-1.3407,-1.3386,-1.3374,-1.3361,-1.3343,-1.3335,-1.3321,-1.3309,-1.3305,-1.3297,-1.3287,-1.3287,-1.3286,-1.3271,-1.3289,-1.3319,-1.3321,-1.3282,-1.3282,-1.3282,0,-1.3538,-1.3514,-1.3506,-1.3496,-1.346,-1.3458,-1.3443,-1.3421,-1.3411,-1.3394,-1.3387,-1.3371,-1.3362,-1.335,-1.3327,-1.3319,-1.3317,-1.3302,-1.3306,-1.3307,-1.3308,-1.3309,-1.3337,-1.3304,-1.3304,-1.3304,-1.3304,0,-1.3567,-1.3564,-1.3522,-1.3517,-1.3512,-1.3482,-1.3478,-1.3461,-1.3441,-1.3432,-1.3407,-1.3399,-1.3369,-1.3358,-1.334,-1.3331,-1.3328,-1.3318,-1.3313,-1.332,-1.3321,-1.3315,-1.3314,-1.3305,-1.3305,-1.3304,-1.3304,0,-1.361,-1.3582,-1.3571,-1.3537,-1.3528,-1.3525,-1.3496,-1.349,-1.347,-1.3459,-1.3455,-1.3424,-1.3409,-1.3384,-1.3363,-1.3351,-1.3345,-1.3338,-1.3352,-1.3349,-1.3355,-1.3354,-1.338,-1.3381,-1.3349,-1.3349,-1.3349,0,-1.3631,-1.3627,-1.359,-1.3581,-1.3566,-1.3553,-1.3541,-1.3511,-1.35,-1.3473,-1.347,-1.3452,-1.3436,-1.3413,-1.339,-1.3373,-1.3364,-1.3374,-1.3362,-1.3367,-1.3363,-1.3363,-1.3361,-1.3378,-1.3378,-1.3379,-1.3379,0,-1.3669,-1.3654,-1.3637,-1.3615,-1.3601,-1.3583,-1.3563,-1.3557,-1.3523,-1.3512,-1.3494,-1.3482,-1.3457,-1.344,-1.3418,-1.3403,-1.3385,-1.3382,-1.3382,-1.3389,-1.3397,-1.3391,-1.3359,-1.3382,-1.3382,-1.3382,-1.3382,-1.3382,-1.37,-1.3694,-1.3666,-1.3648,-1.3629,-1.361,-1.3601,-1.3578,-1.3563,-1.3539,-1.3522,-1.3505,-1.3481,-1.3449,-1.3435,-1.3421,-1.3414,-1.3414,-1.3414,-1.3415,-1.3416,-1.3399,-1.3418,-1.3418,-1.3417,-1.3417,-1.3417,0,-1.3736,-1.3715,-1.3698,-1.3669,-1.3654,-1.3635,-1.3611,-1.36,-1.3585,-1.3563,-1.3546,-1.3525,-1.3506,-1.3479,-1.3459,-1.3453,-1.3443,-1.3448,-1.3448,-1.3445,-1.3425,-1.3427,-1.3456,-1.3456,-1.3456,-1.3456,-1.3456,-1.3456,-1.3752,-1.374,-1.3721,-1.3698,-1.3678,-1.3659,-1.3646,-1.3628,-1.361,-1.3586,-1.3569,-1.3551,-1.3526,-1.3503,-1.3485,-1.3477,-1.3471,-1.3478,-1.3468,-1.345,-1.3447,-1.3443,-1.3444,-1.3477,-1.3477,-1.3488,-1.3488,-1.3488]},{"header":{"parameterUnit":"m.s-1","parameterCategory":1,"la1":30.2991,"la2":30.254,"lo1":-89.0895,"lo2":-89.0444,"dy":0.0017,"dx":0.0017,"nx":28,"ny":28,"refTime":"2025-08-05T03:00:00:Z","depth":0,"parameterNumber":3,"parameterNumberName":"V-component_of_WINDS"},"data":[0,0,0,0,0,0,0,0,0,0,0,0,0,0,0,0,0,0,0,0,0,0,0,0,0,0,0,0,0,0,0,0,0,0,0,0,0,0,0,0,0,0,0,0,0,0,0,0,0,0,0,0,0,0,0,0,0,0,-2.2164,-2.2166,0,-2.2362,-2.2365,-2.2367,-2.2382,-2.238,-2.2378,-2.2376,-2.2577,-2.2585,-2.2592,0,0,0,0,0,0,0,0,0,0,0,0,0,-2.1793,-2.18,-2.2164,-2.2166,-2.2169,-2.2362,-2.2365,-2.2368,-2.2382,-2.238,-2.2377,-2.2375,-2.2575,-2.2584,-2.2593,0,0,0,0,0,0,0,0,0,0,0,0,0,-2.1969,-2.1802,-2.2163,-2.22,-2.2205,-2.2362,-2.2365,-2.2368,-2.2383,-2.238,-2.2376,-2.2373,-2.2572,-2.2583,-2.2594,-2.2728,0,0,-2.2628,-2.2633,0,0,0,0,0,0,0,0,-2.1959,-2.1983,-2.2192,-2.2197,-2.2203,-2.2344,-2.2308,-2.2489,-2.2384,-2.2315,-2.2375,-2.2372,-2.2502,-2.2519,-2.2563,-2.2737,-2.2746,-2.2629,-2.2635,-2.264,-2.2643,0,0,0,0,0,0,0,-2.1947,-2.1974,-2.2242,-2.2195,-2.2202,-2.2204,-2.2226,-2.2342,-2.2425,-2.2321,-2.2323,-2.2346,-2.2505,-2.2553,-2.2568,-2.2749,-2.2628,-2.2638,-2.2645,-2.2649,-2.3038,-2.3041,0,0,0,0,0,0,-2.1928,-2.1964,-2.2236,-2.2248,-2.2071,-2.2214,-2.2238,-2.2302,-2.2423,-2.2439,-2.2348,-2.2346,-2.2535,-2.2555,-2.2575,-2.2738,-2.264,-2.2651,-2.2657,-2.3034,-2.3039,-2.3043,0,0,0,0,0,0,-2.192,-2.1953,-2.2228,-2.2107,-2.2142,-2.2224,-2.2296,-2.2308,-2.2356,-2.2444,-2.2459,-2.2382,-2.2533,-2.256,-2.2689,-2.2745,-2.2656,-2.2666,-2.303,-2.3036,-2.3041,-2.3066,0,0,0,0,0,0,-2.191,-2.195,-2.2003,-2.2108,-2.2148,-2.234,-2.23,-2.2314,-2.2375,-2.2373,-2.248,-2.2494,-2.2533,-2.2672,-2.27,-2.2759,-2.2674,-2.3025,-2.3033,-2.3039,-2.306,-2.3071,-2.3081,0,0,0,0,0,-2.1896,-2.2002,-2.2005,-2.2038,-2.2217,-2.2343,-2.2366,-2.2409,-2.238,-2.2433,-2.2489,-2.2491,-2.2734,-2.2685,-2.2717,-2.278,-2.3022,-2.3031,-2.3038,-2.3056,-2.3069,-2.3081,0,0,0,0,0,0,-2.1903,-2.2017,-2.2022,-2.2165,-2.2244,-2.2346,-2.2414,-2.2423,-2.2512,-2.2506,-2.2555,-2.2578,-2.2705,-2.2755,-2.2699,-2.2913,-2.2875,-2.289,-2.2877,-2.2891,-2.2901,-2.2886,-2.2684,0,0,0,0,0,-2.1921,-2.2015,-2.2109,-2.2226,-2.2266,-2.2333,-2.239,-2.2415,-2.2499,-2.2533,-2.2598,-2.2679,-2.2773,-2.2834,-2.2926,-2.3066,-2.3088,-2.3125,-2.3135,-2.3143,-2.3156,-2.323,-2.3247,-2.307,-2.307,-2.307,0,0,-2.1959,-2.2033,-2.209,-2.2229,-2.2294,-2.2389,-2.2361,-2.2464,-2.2534,-2.2548,-2.2674,-2.2724,-2.2817,-2.2951,-2.3014,-2.2997,-2.3209,-2.3154,-2.3159,-2.3168,-2.324,-2.3257,-2.3272,-2.3075,-2.3074,-2.3073,0,0,-2.2078,-2.2144,-2.2248,-2.2312,-2.2409,-2.2452,-2.2476,-2.2576,-2.261,-2.2737,-2.2748,-2.2831,-2.2993,-2.3058,-2.3112,-2.3249,-2.3254,-2.3277,-2.3332,-2.3404,-2.3418,-2.3431,-2.3478,-2.3494,-2.3289,-2.329,-2.329,0,-2.2114,-2.2258,-2.23,-2.2401,-2.2461,-2.2476,-2.258,-2.264,-2.2763,-2.2803,-2.2781,-2.2983,-2.3046,-2.3195,-2.3227,-2.3271,-2.3299,-2.3267,-2.3413,-2.3426,-2.3438,-2.3484,-2.3501,-2.3292,-2.3292,-2.3291,-2.3291,0,-2.2296,-2.2395,-2.2467,-2.2584,-2.2651,-2.2754,-2.2809,-2.2872,-2.289,-2.2934,-2.3061,-2.3137,-2.3243,-2.3279,-2.3299,-2.3429,-2.3415,-2.3403,-2.3365,-2.3456,-2.35,-2.3518,-2.3295,-2.3294,-2.3293,-2.3293,0,0,-2.2429,-2.2563,-2.2589,-2.264,-2.2746,-2.2823,-2.2924,-2.3027,-2.3079,-2.3161,-2.3246,-2.338,-2.3368,-2.3429,-2.3455,-2.3518,-2.3619,-2.3498,-2.35,-2.3516,-2.3764,-2.3773,-2.3793,-2.3621,-2.3625,-2.3628,-2.3756,0,-2.2558,-2.274,-2.2778,-2.2934,-2.3025,-2.3038,-2.3125,-2.3198,-2.3241,-2.3323,-2.337,-2.3464,-2.3442,-2.3478,-2.3541,-2.3593,-2.3669,-2.3585,-2.3699,-2.3703,-2.3676,-2.3816,-2.3827,-2.3944,-2.3773,-2.3776,-2.3779,0,-2.2736,-2.2821,-2.2986,-2.3076,-2.3115,-2.3194,-2.3289,-2.3367,-2.3449,-2.3475,-2.3541,-2.3559,-2.3661,-2.3617,-2.3757,-2.3699,-2.3747,-2.3779,-2.3784,-2.3797,-2.3747,-2.3832,-2.3983,-2.4,-2.3806,-2.3804,-2.3802,0,-2.2815,-2.297,-2.3088,-2.3132,-2.324,-2.3294,-2.3342,-2.342,-2.3478,-2.356,-2.3598,-2.3691,-2.3742,-2.3813,-2.3854,-2.3818,-2.399,-2.395,-2.4013,-2.4012,-2.4051,-2.4048,-2.4211,-2.4081,-2.4081,-2.4081,-2.408,0,-2.2957,-2.3057,-2.3124,-2.3197,-2.3308,-2.3349,-2.3457,-2.3504,-2.3572,-2.3653,-2.3669,-2.3743,-2.3793,-2.3874,-2.3906,-2.4016,-2.4039,-2.4062,-2.407,-2.4061,-2.4058,-2.4094,-2.4087,-2.4086,-2.4085,-2.4084,-2.4083,0,-2.3065,-2.3115,-2.3244,-2.3334,-2.3359,-2.3436,-2.3513,-2.3583,-2.3623,-2.3724,-2.375,-2.3814,-2.391,-2.3957,-2.4076,-2.4097,-2.4221,-2.4223,-2.4194,-2.4197,-2.4257,-2.425,-2.445,-2.4477,-2.4329,-2.4331,-2.4332,0,-2.3153,-2.323,-2.3327,-2.3382,-2.343,-2.3519,-2.3577,-2.3618,-2.3678,-2.3774,-2.3831,-2.3927,-2.4006,-2.4157,-2.4213,-2.4302,-2.4307,-2.437,-2.4321,-2.4308,-2.4307,-2.4302,-2.4308,-2.438,-2.4381,-2.4382,-2.4383,0,-2.3303,-2.3323,-2.3407,-2.3498,-2.3567,-2.3642,-2.3714,-2.3758,-2.381,-2.3876,-2.3973,-2.4034,-2.4153,-2.4247,-2.434,-2.4386,-2.4393,-2.4398,-2.4417,-2.441,-2.4389,-2.4399,-2.4218,-2.4394,-2.4393,-2.4392,-2.4391,-2.4391,-2.3404,-2.3472,-2.355,-2.3642,-2.37,-2.3766,-2.3835,-2.3883,-2.3965,-2.4066,-2.4084,-2.4186,-2.4261,-2.4386,-2.4435,-2.4514,-2.45,-2.4528,-2.4535,-2.4542,-2.4544,-2.4375,-2.4531,-2.453,-2.453,-2.453,-2.453,0,-2.3555,-2.3604,-2.3688,-2.3788,-2.3859,-2.3858,-2.3937,-2.3996,-2.4086,-2.4155,-2.4231,-2.434,-2.443,-2.4491,-2.4582,-2.4633,-2.4637,-2.4655,-2.4652,-2.4662,-2.4552,-2.4526,-2.4649,-2.4649,-2.4649,-2.4649,-2.4649,-2.4649,-2.3642,-2.3755,-2.3783,-2.3923,-2.3972,-2.4072,-2.4117,-2.4177,-2.4232,-2.4353,-2.4427,-2.4466,-2.4531,-2.4625,-2.4706,-2.4721,-2.4753,-2.4771,-2.4786,-2.4682,-2.467,-2.4658,-2.4634,-2.4777,-2.4778,-2.4889,-2.489,-2.4891]}]]